| time (UTC) | temp F | wind direction | speed knots | gust knots | rain 1hr in | rain 24hr in | rain mn in | humidity % | barometer mb |
| 20260507050822 | 48 | 255 | 3.5 | 6.1 | 0.00 | 0.00 | 0.00 | 97 | 1004.0 |
| 20260507050319 | 48 | 245 | 4.3 | 7.0 | 0.00 | 0.00 | 0.00 | 97 | 1003.6 |
| 20260507045816 | 48 | 288 | 3.5 | 6.1 | 0.00 | 0.00 | 0.00 | 97 | 1003.7 |
| 20260507045312 | 48 | 337 | 4.3 | 8.7 | 0.00 | 0.00 | 0.00 | 98 | 1003.9 |
| 20260507044809 | 49 | 326 | 4.3 | 6.1 | 0.00 | 0.00 | 0.00 | 98 | 1004.2 |
| 20260507044306 | 49 | 245 | 3.5 | 6.1 | 0.00 | 0.00 | 0.00 | 98 | 1004.1 |
| 20260507043802 | 49 | 306 | 2.6 | 5.2 | 0.00 | 0.00 | 0.00 | 98 | 1003.9 |
| 20260507043259 | 49 | 202 | 4.3 | 6.1 | 0.00 | 0.00 | 0.00 | 98 | 1004.3 |
| 20260507042755 | 49 | 244 | 4.3 | 8.7 | 0.00 | 0.00 | 0.00 | 98 | 1004.3 |
| 20260507042250 | 49 | 273 | 6.1 | 7.0 | 0.00 | 0.00 | 0.00 | 99 | 1003.9 |
| 20260507041748 | 49 | 257 | 5.2 | 7.8 | 0.00 | 0.00 | 0.00 | 99 | 1003.9 |
| 20260507041244 | 49 | 326 | 3.5 | 7.0 | 0.00 | 0.00 | 0.00 | 99 | 1003.8 |
| 20260507040741 | 50 | 216 | 2.6 | 5.2 | 0.00 | 0.00 | 0.00 | 99 | 1003.7 |
| 20260507040237 | 50 | 350 | 4.3 | 7.0 | 0.00 | 0.00 | 0.00 | 99 | 1003.7 |
| 20260507035734 | 50 | 285 | 5.2 | 8.7 | 0.00 | 0.25 | 0.25 | 99 | 1003.7 |
| 20260507035229 | 50 | 308 | 6.1 | 7.0 | 0.07 | 0.25 | 0.25 | 99 | 1004.0 |
| 20260507034727 | 51 | 343 | 3.5 | 5.2 | 0.07 | 0.25 | 0.25 | 99 | 1003.7 |
| 20260507034223 | 51 | 265 | 5.2 | 7.0 | 0.05 | 0.24 | 0.24 | 99 | 1003.8 |
| 20260507033722 | 51 | 242 | 4.3 | 7.0 | 0.05 | 0.24 | 0.24 | 99 | 1004.0 |
| 20260507033219 | 51 | 300 | 4.3 | 8.7 | 0.07 | 0.23 | 0.23 | 99 | 1003.9 |
| 20260507032717 | 52 | 260 | 6.1 | 8.7 | 0.07 | 0.23 | 0.23 | 98 | 1003.9 |
| 20260507032212 | 52 | 327 | 8.7 | 12.2 | 0.00 | 0.22 | 0.22 | 99 | 1003.7 |
| 20260507031709 | 53 | 324 | 4.3 | 7.0 | 0.00 | 0.22 | 0.22 | 99 | 1004.0 |
| 20260507031206 | 53 | 269 | 6.1 | 8.7 | 0.00 | 0.22 | 0.22 | 99 | 1003.9 |
| 20260507030703 | 53 | 326 | 7.0 | 9.6 | 0.00 | 0.22 | 0.22 | 99 | 1003.8 |
| 20260507030200 | 53 | 242 | 7.0 | 9.6 | 0.00 | 0.22 | 0.22 | 99 | 1003.7 |
| 20260507025657 | 53 | 169 | 5.2 | 6.1 | 0.00 | 0.22 | 0.22 | 99 | 1003.7 |
| 20260507025154 | 54 | 122 | 4.3 | 7.0 | 0.00 | 0.22 | 0.22 | 99 | 1003.4 |
| 20260507024652 | 54 | 288 | 4.3 | 6.1 | 0.00 | 0.22 | 0.22 | 99 | 1003.5 |
| 20260507024149 | 54 | 306 | 5.2 | 7.0 | 0.00 | 0.22 | 0.22 | 99 | 1003.3 |
| 20260507023644 | 54 | 50 | 6.1 | 7.0 | 0.00 | 0.22 | 0.22 | 99 | 1003.3 |
| 20260507023142 | 54 | 320 | 4.3 | 6.1 | 0.05 | 0.22 | 0.22 | 99 | 1003.6 |
| 20260507022639 | 54 | 82 | 6.1 | 7.8 | 0.05 | 0.22 | 0.22 | 99 | 1003.7 |
| 20260507022135 | 55 | 297 | 3.5 | 7.0 | 0.00 | 0.21 | 0.21 | 99 | 1003.4 |
| 20260507021631 | 55 | 268 | 6.1 | 7.8 | 0.07 | 0.21 | 0.21 | 99 | 1003.3 |
| 20260507021127 | 56 | 179 | 6.1 | 7.0 | 0.00 | 0.20 | 0.20 | 99 | 1003.3 |
| 20260507020625 | 57 | 355 | 4.3 | 6.1 | 0.00 | 0.20 | 0.20 | 99 | 1003.6 |
| 20260507020121 | 58 | 257 | 1.7 | 4.3 | 0.00 | 0.20 | 0.20 | 99 | 1003.0 |
| 20260507015620 | 58 | 252 | 1.7 | 2.6 | 0.00 | 0.20 | 0.20 | 99 | 1003.4 |
| 20260507015117 | 58 | 183 | 4.3 | 7.8 | 0.00 | 0.20 | 0.20 | 99 | 1003.3 |
| 20260507014613 | 58 | 165 | 3.5 | 7.0 | 0.00 | 0.20 | 0.20 | 99 | 1003.2 |
| 20260507014109 | 58 | 193 | 2.6 | 7.0 | 0.00 | 0.20 | 0.20 | 99 | 1003.2 |
| 20260507013606 | 58 | 224 | 1.7 | 4.3 | 0.00 | 0.20 | 0.20 | 99 | 1003.2 |
| 20260507013103 | 58 | 164 | 4.3 | 6.1 | 0.00 | 0.20 | 0.20 | 99 | 1003.3 |
| 20260507012600 | 58 | 209 | 1.7 | 5.2 | 0.00 | 0.20 | 0.20 | 99 | 1003.3 |
| 20260507012056 | 58 | 166 | 1.7 | 7.0 | 0.00 | 0.20 | 0.20 | 99 | 1003.3 |
| 20260507011554 | 58 | 158 | 3.5 | 5.2 | 0.00 | 0.20 | 0.20 | 99 | 1003.3 |
| 20260507011050 | 58 | 221 | 0.9 | 6.1 | 0.00 | 0.20 | 0.20 | 99 | 1003.2 |
| 20260507010545 | 58 | 239 | 0.9 | 4.3 | 0.00 | 0.20 | 0.20 | 99 | 1003.3 |
| 20260507010041 | 58 | 174 | 3.5 | 7.0 | 0.00 | 0.20 | 0.20 | 99 | 1003.3 |
| 20260507005539 | 58 | 188 | 3.5 | 9.6 | 0.00 | 0.20 | 0.20 | 99 | 1003.2 |
| 20260507005035 | 58 | 206 | 4.3 | 7.0 | 0.00 | 0.20 | 0.20 | 99 | 1003.2 |
| 20260507004532 | 58 | 163 | 6.1 | 7.0 | 0.00 | 0.20 | 0.20 | 99 | 1003.1 |
| 20260507004029 | 58 | 190 | 7.8 | 8.7 | 0.00 | 0.20 | 0.20 | 99 | 1003.4 |
| 20260507003525 | 58 | 173 | 9.6 | 11.3 | 0.00 | 0.20 | 0.20 | 99 | 1003.5 |
| 20260507003020 | 58 | 200 | 6.1 | 11.3 | 0.00 | 0.20 | 0.20 | 99 | 1003.2 |
| 20260507002517 | 58 | 159 | 4.3 | 6.1 | 0.00 | 0.20 | 0.20 | 99 | 1003.2 |
| 20260507002013 | 58 | 212 | 4.3 | 8.7 | 0.00 | 0.20 | 0.20 | 99 | 1003.1 |
| 20260507001509 | 58 | 166 | 4.3 | 8.7 | 0.00 | 0.20 | 0.20 | 99 | 1003.0 |
| 20260507001007 | 58 | 164 | 3.5 | 7.0 | 0.00 | 0.20 | 0.20 | 99 | 1002.9 |
| 20260507000503 | 58 | 180 | 6.1 | 7.8 | 0.00 | 0.20 | 0.20 | 99 | 1003.1 |
| 20260506235958 | 58 | 182 | 6.1 | 13.0 | 0.00 | 0.20 | 0.20 | 99 | 1003.0 |
| 20260506235456 | 58 | 188 | 6.1 | 9.6 | 0.00 | 0.20 | 0.20 | 99 | 1002.8 |
| 20260506234952 | 58 | 180 | 7.8 | 9.6 | 0.00 | 0.20 | 0.20 | 99 | 1003.0 |
| 20260506234449 | 58 | 222 | 4.3 | 7.8 | 0.00 | 0.20 | 0.20 | 99 | 1003.0 |
| 20260506233947 | 58 | 168 | 3.5 | 11.3 | 0.00 | 0.20 | 0.20 | 99 | 1003.0 |
| 20260506233443 | 58 | 181 | 10.4 | 13.0 | 0.00 | 0.20 | 0.20 | 99 | 1003.0 |
| 20260506232940 | 58 | 169 | 7.8 | 12.2 | 0.00 | 0.20 | 0.20 | 99 | 1003.2 |
| 20260506232436 | 58 | 184 | 8.7 | 12.2 | 0.00 | 0.20 | 0.20 | 99 | 1003.1 |
| 20260506231931 | 58 | 192 | 7.8 | 14.8 | 0.00 | 0.20 | 0.20 | 99 | 1003.1 |
| 20260506231429 | 58 | 193 | 6.1 | 9.6 | 0.00 | 0.20 | 0.20 | 99 | 1003.0 |
| 20260506230926 | 58 | 183 | 7.0 | 11.3 | 0.00 | 0.20 | 0.20 | 99 | 1003.1 |
| 20260506230423 | 58 | 198 | 7.0 | 9.6 | 0.00 | 0.20 | 0.20 | 99 | 1003.1 |
| 20260506225920 | 58 | 178 | 7.0 | 9.6 | 0.00 | 0.20 | 0.20 | 99 | 1003.0 |
| 20260506225417 | 58 | 178 | 4.3 | 13.9 | 0.00 | 0.20 | 0.20 | 99 | 1003.2 |
| 20260506224914 | 58 | 169 | 7.8 | 13.0 | 0.00 | 0.20 | 0.20 | 99 | 1003.3 |
| 20260506224411 | 58 | 171 | 6.1 | 14.8 | 0.00 | 0.20 | 0.20 | 99 | 1003.1 |
| 20260506223907 | 59 | 168 | 9.6 | 13.0 | 0.00 | 0.20 | 0.20 | 99 | 1003.1 |
| 20260506223403 | 59 | 193 | 4.3 | 7.8 | 0.00 | 0.20 | 0.20 | 99 | 1003.3 |
| 20260506222900 | 59 | 185 | 5.2 | 11.3 | 0.00 | 0.20 | 0.20 | 99 | 1003.1 |
| 20260506222356 | 59 | 161 | 8.7 | 13.0 | 0.00 | 0.20 | 0.20 | 99 | 1003.3 |
| 20260506221853 | 59 | 182 | 7.0 | 9.6 | 0.00 | 0.20 | 0.20 | 99 | 1003.3 |
| 20260506221350 | 59 | 189 | 9.6 | 13.0 | 0.00 | 0.20 | 0.20 | 99 | 1003.4 |
| 20260506220848 | 59 | 187 | 12.2 | 15.6 | 0.00 | 0.20 | 0.20 | 99 | 1003.1 |
| 20260506220343 | 59 | 204 | 10.4 | 13.0 | 0.00 | 0.20 | 0.20 | 99 | 1003.3 |
| 20260506215840 | 59 | 213 | 7.8 | 11.3 | 0.00 | 0.20 | 0.20 | 99 | 1003.5 |
| 20260506215336 | 59 | 152 | 7.0 | 9.6 | 0.00 | 0.20 | 0.20 | 99 | 1003.5 |
| 20260506214833 | 59 | 187 | 7.0 | 12.2 | 0.00 | 0.20 | 0.20 | 99 | 1003.7 |
| 20260506214329 | 59 | 160 | 6.1 | 12.2 | 0.00 | 0.20 | 0.20 | 99 | 1003.7 |
| 20260506213828 | 59 | 192 | 7.0 | 13.0 | 0.00 | 0.20 | 0.20 | 99 | 1003.9 |
| 20260506213325 | 59 | 183 | 7.0 | 7.8 | 0.00 | 0.20 | 0.20 | 99 | 1003.6 |
| 20260506212822 | 59 | 167 | 7.8 | 13.0 | 0.00 | 0.20 | 0.20 | 99 | 1003.7 |
| 20260506212317 | 59 | 182 | 10.4 | 13.9 | 0.00 | 0.20 | 0.20 | 99 | 1003.8 |
| 20260506211813 | 59 | 155 | 7.0 | 11.3 | 0.00 | 0.20 | 0.20 | 99 | 1003.7 |
| 20260506211309 | 60 | 217 | 4.3 | 8.7 | 0.00 | 0.20 | 0.20 | 99 | 1004.2 |
| 20260506210807 | 60 | 175 | 7.8 | 9.6 | 0.05 | 0.20 | 0.20 | 99 | 1003.7 |
| 20260506210303 | 60 | 168 | 6.1 | 7.8 | 0.05 | 0.20 | 0.20 | 99 | 1003.8 |
| 20260506205800 | 60 | 188 | 5.2 | 7.8 | 0.07 | 0.19 | 0.19 | 99 | 1004.1 |
| 20260506205256 | 60 | 166 | 3.5 | 4.3 | 0.07 | 0.19 | 0.19 | 99 | 1003.8 |
| 20260506204753 | 60 | 184 | 5.2 | 7.0 | 0.05 | 0.18 | 0.18 | 99 | 1004.0 |
| 20260506204251 | 60 | 182 | 3.5 | 7.0 | 0.05 | 0.18 | 0.18 | 99 | 1004.1 |
| 20260506203748 | 60 | 189 | 4.3 | 6.1 | 0.00 | 0.17 | 0.17 | 99 | 1004.2 |
| 20260506203245 | 60 | 171 | 4.3 | 7.0 | 0.07 | 0.17 | 0.17 | 99 | 1004.2 |
| 20260506202742 | 60 | 167 | 4.3 | 7.0 | 0.07 | 0.17 | 0.17 | 99 | 1004.3 |
| 20260506202239 | 60 | 185 | 4.3 | 6.1 | 0.12 | 0.16 | 0.16 | 99 | 1004.2 |
| 20260506201736 | 60 | 212 | 1.7 | 7.0 | 0.17 | 0.16 | 0.16 | 99 | 1004.1 |
| 20260506201232 | 60 | 209 | 1.7 | 4.3 | 0.05 | 0.14 | 0.14 | 99 | 1004.4 |
| 20260506200729 | 60 | 170 | 3.5 | 4.3 | 0.07 | 0.13 | 0.13 | 99 | 1004.3 |
| 20260506200226 | 60 | 149 | 2.6 | 4.3 | 0.07 | 0.13 | 0.13 | 99 | 1004.4 |
| 20260506195722 | 60 | 202 | 0.9 | 2.6 | 0.00 | 0.12 | 0.12 | 99 | 1004.2 |
| 20260506195219 | 60 | 175 | 2.6 | 4.3 | 0.00 | 0.12 | 0.12 | 99 | 1004.3 |
| 20260506194716 | 60 | 198 | 0.0 | 2.6 | 0.00 | 0.12 | 0.12 | 99 | 1004.2 |
| 20260506194212 | 60 | 178 | 4.3 | 7.0 | 0.00 | 0.12 | 0.12 | 99 | 1004.3 |
| 20260506193710 | 60 | 175 | 2.6 | 7.0 | 0.07 | 0.12 | 0.12 | 99 | 1004.5 |
| 20260506193202 | 60 | 184 | 2.6 | 5.2 | 0.07 | 0.12 | 0.12 | 99 | 1004.3 |
| 20260506192658 | 60 | 180 | 2.6 | 4.3 | 0.00 | 0.11 | 0.11 | 99 | 1004.3 |
| 20260506192154 | 60 | 171 | 4.3 | 7.8 | 0.00 | 0.11 | 0.11 | 99 | 1004.7 |
| 20260506191652 | 60 | 185 | 1.7 | 4.3 | 0.00 | 0.11 | 0.11 | 98 | 1005.0 |
| 20260506191148 | 60 | 190 | 2.6 | 9.6 | 0.05 | 0.11 | 0.11 | 98 | 1004.7 |
| 20260506190645 | 60 | 222 | 8.7 | 14.8 | 0.12 | 0.11 | 0.11 | 98 | 1005.1 |
| 20260506190142 | 60 | 182 | 6.1 | 11.3 | 0.07 | 0.10 | 0.10 | 99 | 1005.2 |
| 20260506185639 | 60 | 183 | 4.3 | 7.8 | 0.05 | 0.09 | 0.09 | 98 | 1005.2 |
| 20260506185135 | 60 | 203 | 2.6 | 8.7 | 0.12 | 0.09 | 0.09 | 98 | 1005.4 |
| 20260506184632 | 61 | 229 | 1.7 | 4.3 | 0.05 | 0.07 | 0.07 | 97 | 1005.2 |
| 20260506184130 | 61 | 172 | 4.3 | 7.0 | 0.12 | 0.07 | 0.07 | 96 | 1005.3 |
| 20260506183626 | 61 | 245 | 0.9 | 7.8 | 0.12 | 0.06 | 0.06 | 96 | 1005.1 |
| 20260506183122 | 61 | 179 | 6.1 | 8.7 | 0.12 | 0.05 | 0.05 | 95 | 1005.5 |
| 20260506182620 | 62 | 259 | 3.5 | 6.1 | 0.07 | 0.04 | 0.04 | 95 | 1005.4 |
| 20260506182117 | 62 | 199 | 0.0 | 2.6 | 0.05 | 0.03 | 0.03 | 95 | 1005.6 |
| 20260506181615 | 62 | 206 | 2.6 | 4.3 | 0.12 | 0.03 | 0.03 | 93 | 1005.5 |
| 20260506181112 | 62 | 185 | 1.7 | 4.3 | 0.07 | 0.02 | 0.02 | 91 | 1005.6 |
| 20260506180608 | 63 | 266 | 3.5 | 7.0 | 0.05 | 0.01 | 0.01 | 89 | 1005.6 |
| 20260506180105 | 64 | 227 | 0.9 | 4.3 | 0.05 | 0.01 | 0.01 | 86 | 1005.2 |
| 20260506175601 | 65 | 170 | 0.9 | 4.3 | 0.00 | 0.00 | 0.00 | 84 | 1005.2 |
| 20260506175057 | 66 | 247 | 0.9 | 6.1 | 0.00 | 0.00 | 0.00 | 79 | 1005.1 |
| 20260506174556 | 67 | 177 | 7.0 | 13.9 | 0.00 | 0.00 | 0.00 | 75 | 1004.8 |
| 20260506174052 | 68 | 169 | 7.0 | 7.8 | 0.00 | 0.00 | 0.00 | 73 | 1004.8 |
| 20260506173550 | 68 | 185 | 11.3 | 17.4 | 0.00 | 0.00 | 0.00 | 72 | 1004.7 |
| 20260506173046 | 69 | 167 | 13.9 | 19.1 | 0.00 | 0.00 | 0.00 | 69 | 1004.7 |
| 20260506172544 | 69 | 174 | 13.0 | 20.0 | 0.00 | 0.00 | 0.00 | 69 | 1004.7 |
| 20260506172040 | 69 | 187 | 7.8 | 11.3 | 0.00 | 0.00 | 0.00 | 69 | 1004.8 |
| 20260506171537 | 69 | 167 | 8.7 | 13.9 | 0.00 | 0.00 | 0.00 | 69 | 1005.1 |
| 20260506171034 | 68 | 183 | 7.0 | 18.2 | 0.00 | 0.00 | 0.00 | 69 | 1005.0 |
| 20260506170532 | 68 | 169 | 14.8 | 18.2 | 0.00 | 0.00 | 0.00 | 69 | 1005.3 |
| 20260506170024 | 68 | 187 | 5.2 | 13.9 | 0.00 | 0.00 | 0.00 | 70 | 1005.3 |
| 20260506165522 | 69 | 197 | 13.0 | 15.6 | 0.00 | 0.00 | 0.00 | 70 | 1005.2 |
| 20260506165018 | 69 | 184 | 4.3 | 6.1 | 0.00 | 0.00 | 0.00 | 71 | 1005.5 |
| 20260506164515 | 69 | 171 | 2.6 | 8.7 | 0.00 | 0.00 | 0.00 | 71 | 1005.3 |
| 20260506164013 | 68 | 172 | 5.2 | 9.6 | 0.00 | 0.00 | 0.00 | 71 | 1005.2 |
| 20260506163508 | 68 | 172 | 7.0 | 8.7 | 0.00 | 0.00 | 0.00 | 72 | 1005.7 |
| 20260506163004 | 68 | 192 | 5.2 | 7.0 | 0.00 | 0.00 | 0.00 | 73 | 1005.6 |
| 20260506162501 | 68 | 162 | 1.7 | 4.3 | 0.00 | 0.00 | 0.00 | 73 | 1006.0 |
| 20260506161958 | 68 | 183 | 3.5 | 7.0 | 0.00 | 0.00 | 0.00 | 74 | 1006.0 |
| 20260506161455 | 67 | 190 | 2.6 | 5.2 | 0.00 | 0.00 | 0.00 | 74 | 1006.2 |
| 20260506160952 | 67 | 169 | 6.1 | 7.8 | 0.00 | 0.00 | 0.00 | 74 | 1006.2 |
| 20260506160450 | 67 | 190 | 6.1 | 11.3 | 0.00 | 0.00 | 0.00 | 74 | 1006.5 |
| 20260506155947 | 67 | 223 | 2.6 | 8.7 | 0.00 | 0.00 | 0.00 | 75 | 1006.6 |
| 20260506155444 | 67 | 158 | 5.2 | 13.9 | 0.00 | 0.00 | 0.00 | 75 | 1006.6 |
| 20260506153611 | 66 | 213 | 6.1 | 12.2 | 0.00 | 0.00 | 0.00 | 76 | 1007.0 |
| 20260506153108 | 66 | 183 | 5.2 | 8.7 | 0.00 | 0.00 | 0.00 | 76 | 1007.0 |
| 20260506152605 | 66 | 181 | 5.2 | 12.2 | 0.00 | 0.00 | 0.00 | 77 | 1007.2 |
| 20260506152103 | 66 | 194 | 5.2 | 12.2 | 0.00 | 0.00 | 0.00 | 77 | 1007.0 |
| 20260506151601 | 66 | 180 | 7.8 | 8.7 | 0.00 | 0.00 | 0.00 | 76 | 1007.0 |
| 20260506151058 | 67 | 172 | 4.3 | 7.0 | 0.00 | 0.00 | 0.00 | 76 | 1006.7 |
| 20260506150554 | 67 | 243 | 0.9 | 8.7 | 0.00 | 0.00 | 0.00 | 77 | 1006.8 |
| 20260506150051 | 67 | 195 | 4.3 | 7.8 | 0.00 | 0.00 | 0.00 | 76 | 1007.0 |
| 20260506145548 | 66 | 239 | 3.5 | 8.7 | 0.00 | 0.00 | 0.00 | 77 | 1007.1 |
| 20260506145046 | 66 | 205 | 3.5 | 7.8 | 0.00 | 0.00 | 0.00 | 77 | 1006.9 |
| 20260506144542 | 66 | 186 | 6.1 | 8.7 | 0.00 | 0.00 | 0.00 | 77 | 1006.8 |
| 20260506144039 | 66 | 178 | 6.1 | 6.1 | 0.00 | 0.00 | 0.00 | 78 | 1006.7 |
| 20260506143537 | 65 | 187 | 4.3 | 7.8 | 0.00 | 0.00 | 0.00 | 79 | 1006.7 |
| 20260506143035 | 65 | 182 | 7.8 | 8.7 | 0.00 | 0.00 | 0.00 | 79 | 1006.9 |
| 20260506142533 | 64 | 205 | 5.2 | 7.0 | 0.00 | 0.00 | 0.00 | 80 | 1006.9 |
| 20260506142031 | 64 | 179 | 6.1 | 11.3 | 0.00 | 0.00 | 0.00 | 80 | 1006.7 |
| 20260506141528 | 64 | 208 | 4.3 | 8.7 | 0.00 | 0.00 | 0.00 | 80 | 1006.7 |
| 20260506141026 | 64 | 154 | 4.3 | 7.0 | 0.00 | 0.00 | 0.00 | 80 | 1006.7 |
| 20260506140523 | 64 | 195 | 5.2 | 9.6 | 0.00 | 0.00 | 0.00 | 80 | 1007.0 |
| 20260506140021 | 64 | 263 | 4.3 | 7.8 | 0.00 | 0.00 | 0.00 | 80 | 1007.0 |
| 20260506135518 | 64 | 182 | 0.9 | 7.0 | 0.00 | 0.00 | 0.00 | 81 | 1007.1 |
| 20260506135013 | 63 | 177 | 7.0 | 13.0 | 0.00 | 0.00 | 0.00 | 81 | 1007.1 |
| 20260506134510 | 63 | 166 | 5.2 | 8.7 | 0.00 | 0.00 | 0.00 | 81 | 1006.9 |
| 20260506134006 | 63 | 166 | 6.1 | 8.7 | 0.00 | 0.00 | 0.00 | 81 | 1007.2 |
| 20260506133504 | 63 | 177 | 5.2 | 7.8 | 0.00 | 0.00 | 0.00 | 82 | 1007.3 |
| 20260506133000 | 63 | 187 | 7.0 | 9.6 | 0.00 | 0.00 | 0.00 | 82 | 1007.3 |
| 20260506132457 | 62 | 160 | 3.5 | 7.0 | 0.00 | 0.00 | 0.00 | 82 | 1007.2 |
| 20260506131955 | 62 | 172 | 6.1 | 12.2 | 0.00 | 0.00 | 0.00 | 82 | 1007.1 |
| 20260506131451 | 62 | 166 | 4.3 | 7.8 | 0.00 | 0.00 | 0.00 | 83 | 1007.2 |
| 20260506130948 | 62 | 184 | 4.3 | 7.0 | 0.00 | 0.00 | 0.00 | 83 | 1007.3 |
| 20260506130445 | 62 | 177 | 5.2 | 7.0 | 0.00 | 0.00 | 0.00 | 83 | 1007.1 |
| 20260506125942 | 62 | 190 | 6.1 | 7.0 | 0.00 | 0.00 | 0.00 | 83 | 1007.2 |
| 20260506125441 | 62 | 201 | 5.2 | 11.3 | 0.00 | 0.00 | 0.00 | 83 | 1007.2 |
| 20260506124938 | 62 | 180 | 7.0 | 9.6 | 0.00 | 0.00 | 0.00 | 83 | 1007.2 |
| 20260506124436 | 61 | 169 | 7.8 | 8.7 | 0.00 | 0.00 | 0.00 | 83 | 1007.2 |
| 20260506123934 | 61 | 187 | 7.8 | 9.6 | 0.00 | 0.00 | 0.00 | 83 | 1007.2 |
| 20260506123431 | 61 | 174 | 5.2 | 11.3 | 0.00 | 0.00 | 0.00 | 84 | 1007.0 |
| 20260506122929 | 61 | 147 | 7.0 | 8.7 | 0.00 | 0.00 | 0.00 | 83 | 1007.2 |
| 20260506122425 | 61 | 168 | 7.0 | 12.2 | 0.00 | 0.00 | 0.00 | 83 | 1007.1 |
| 20260506121924 | 61 | 176 | 7.0 | 9.6 | 0.00 | 0.00 | 0.00 | 83 | 1007.3 |
| 20260506121420 | 61 | 170 | 7.8 | 9.6 | 0.00 | 0.00 | 0.00 | 83 | 1007.3 |
| 20260506120917 | 61 | 166 | 6.1 | 7.8 | 0.00 | 0.00 | 0.00 | 83 | 1007.5 |
| 20260506120415 | 61 | 178 | 4.3 | 11.3 | 0.00 | 0.00 | 0.00 | 84 | 1007.4 |
| 20260506115912 | 60 | 181 | 6.1 | 7.8 | 0.00 | 0.00 | 0.00 | 84 | 1007.3 |
| 20260506115410 | 60 | 175 | 3.5 | 7.8 | 0.00 | 0.00 | 0.00 | 84 | 1007.6 |
| 20260506114908 | 60 | 155 | 7.0 | 9.6 | 0.00 | 0.00 | 0.00 | 84 | 1007.8 |
| 20260506114405 | 60 | 175 | 4.3 | 8.7 | 0.00 | 0.00 | 0.00 | 84 | 1007.5 |
| 20260506113904 | 60 | 176 | 4.3 | 8.7 | 0.00 | 0.00 | 0.00 | 84 | 1007.6 |
| 20260506113401 | 60 | 174 | 4.3 | 7.8 | 0.00 | 0.00 | 0.00 | 84 | 1007.2 |
| 20260506112857 | 60 | 164 | 6.1 | 7.8 | 0.00 | 0.00 | 0.00 | 84 | 1007.4 |
| 20260506112355 | 59 | 169 | 6.1 | 11.3 | 0.00 | 0.00 | 0.00 | 85 | 1007.9 |
| 20260506111852 | 59 | 168 | 7.0 | 8.7 | 0.00 | 0.00 | 0.00 | 85 | 1007.9 |
| 20260506111350 | 59 | 182 | 6.1 | 8.7 | 0.00 | 0.00 | 0.00 | 85 | 1007.7 |
| 20260506110847 | 59 | 173 | 5.2 | 7.0 | 0.00 | 0.00 | 0.00 | 85 | 1007.8 |
| 20260506110344 | 59 | 165 | 6.1 | 9.6 | 0.00 | 0.00 | 0.00 | 85 | 1008.0 |
| 20260506105841 | 59 | 169 | 5.2 | 7.8 | 0.00 | 0.00 | 0.00 | 86 | 1007.9 |
| 20260506105338 | 59 | 166 | 7.0 | 9.6 | 0.00 | 0.00 | 0.00 | 85 | 1007.7 |
| 20260506104835 | 58 | 177 | 5.2 | 7.8 | 0.00 | 0.00 | 0.00 | 85 | 1007.9 |
| 20260506104333 | 59 | 187 | 5.2 | 7.8 | 0.00 | 0.00 | 0.00 | 85 | 1007.9 |
| 20260506103830 | 59 | 188 | 7.0 | 11.3 | 0.00 | 0.00 | 0.00 | 85 | 1007.8 |
| 20260506103327 | 58 | 177 | 6.1 | 7.8 | 0.00 | 0.00 | 0.00 | 85 | 1007.7 |
| 20260506102825 | 58 | 207 | 6.1 | 11.3 | 0.00 | 0.00 | 0.00 | 85 | 1007.6 |
| 20260506102323 | 58 | 190 | 4.3 | 8.7 | 0.00 | 0.00 | 0.00 | 84 | 1007.6 |
| 20260506101820 | 58 | 177 | 6.1 | 7.0 | 0.00 | 0.00 | 0.00 | 84 | 1007.7 |
| 20260506101315 | 58 | 197 | 4.3 | 7.0 | 0.00 | 0.00 | 0.00 | 83 | 1007.4 |
| 20260506100814 | 58 | 187 | 5.2 | 7.0 | 0.00 | 0.00 | 0.00 | 83 | 1007.3 |
| 20260506100312 | 58 | 251 | 1.7 | 5.2 | 0.00 | 0.00 | 0.00 | 83 | 1007.6 |
| 20260506095810 | 58 | 175 | 4.3 | 4.3 | 0.00 | 0.00 | 0.00 | 83 | 1007.6 |
| 20260506095306 | 59 | 184 | 2.6 | 6.1 | 0.00 | 0.00 | 0.00 | 82 | 1007.4 |
| 20260506094803 | 59 | 181 | 5.2 | 7.0 | 0.00 | 0.00 | 0.00 | 82 | 1007.4 |
| 20260506094302 | 59 | 179 | 5.2 | 6.1 | 0.00 | 0.00 | 0.00 | 82 | 1007.3 |
| 20260506093800 | 59 | 174 | 5.2 | 7.0 | 0.00 | 0.00 | 0.00 | 81 | 1007.6 |
| 20260506093256 | 59 | 186 | 4.3 | 6.1 | 0.00 | 0.00 | 0.00 | 81 | 1007.3 |
| 20260506092755 | 59 | 185 | 4.3 | 7.0 | 0.00 | 0.00 | 0.00 | 80 | 1007.3 |
| 20260506092252 | 59 | 190 | 3.5 | 6.1 | 0.00 | 0.00 | 0.00 | 81 | 1007.4 |
| 20260506091749 | 59 | 191 | 2.6 | 6.1 | 0.00 | 0.00 | 0.00 | 80 | 1007.3 |
| 20260506091247 | 59 | 199 | 3.5 | 7.0 | 0.00 | 0.00 | 0.00 | 80 | 1007.3 |
| 20260506090744 | 59 | 189 | 3.5 | 4.3 | 0.00 | 0.00 | 0.00 | 80 | 1007.3 |
| 20260506090241 | 59 | 177 | 1.7 | 2.6 | 0.00 | 0.00 | 0.00 | 80 | 1007.3 |
| 20260506085738 | 59 | 235 | 1.7 | 4.3 | 0.00 | 0.00 | 0.00 | 79 | 1007.3 |
| 20260506085234 | 59 | 181 | 2.6 | 5.2 | 0.00 | 0.00 | 0.00 | 80 | 1007.5 |
| 20260506084731 | 59 | 178 | 4.3 | 7.0 | 0.00 | 0.00 | 0.00 | 79 | 1007.6 |
| 20260506084227 | 60 | 198 | 2.6 | 5.2 | 0.00 | 0.00 | 0.00 | 79 | 1007.7 |
| 20260506083724 | 60 | 171 | 3.5 | 6.1 | 0.00 | 0.00 | 0.00 | 78 | 1007.5 |
| 20260506083222 | 60 | 196 | 3.5 | 5.2 | 0.00 | 0.00 | 0.00 | 78 | 1007.4 |
| 20260506082719 | 60 | 174 | 2.6 | 6.1 | 0.00 | 0.00 | 0.00 | 77 | 1007.3 |
| 20260506082215 | 60 | 185 | 3.5 | 5.2 | 0.00 | 0.00 | 0.00 | 77 | 1007.3 |
| 20260506081713 | 60 | 199 | 5.2 | 7.8 | 0.00 | 0.00 | 0.00 | 77 | 1007.2 |
| 20260506081210 | 60 | 172 | 4.3 | 6.1 | 0.00 | 0.00 | 0.00 | 77 | 1006.8 |
| 20260506080708 | 61 | 178 | 4.3 | 7.0 | 0.00 | 0.00 | 0.00 | 76 | 1007.3 |
| 20260506080204 | 61 | 227 | 5.2 | 8.7 | 0.00 | 0.00 | 0.00 | 76 | 1007.3 |
| 20260506073148 | 61 | 169 | 5.2 | 7.0 | 0.00 | 0.00 | 0.00 | 76 | 1007.4 |
| 20260506072644 | 61 | 222 | 3.5 | 7.0 | 0.00 | 0.00 | 0.00 | 76 | 1007.4 |
| 20260506072143 | 61 | 201 | 2.6 | 7.0 | 0.00 | 0.00 | 0.00 | 76 | 1007.2 |
| 20260506071640 | 61 | 162 | 2.6 | 7.8 | 0.00 | 0.00 | 0.00 | 76 | 1007.5 |
| 20260506071137 | 61 | 193 | 4.3 | 6.1 | 0.00 | 0.00 | 0.00 | 76 | 1007.2 |
| 20260506070634 | 61 | 164 | 5.2 | 8.7 | 0.00 | 0.00 | 0.00 | 75 | 1007.1 |
| 20260506070131 | 61 | 179 | 6.1 | 8.7 | 0.00 | 0.00 | 0.00 | 74 | 1007.1 |
| 20260506062109 | 61 | 224 | 6.1 | 7.8 | 0.00 | 0.00 | 0.00 | 75 | 1006.8 |
| 20260506061604 | 61 | 166 | 5.2 | 7.8 | 0.00 | 0.00 | 0.00 | 75 | 1006.7 |
| 20260506061102 | 61 | 182 | 6.1 | 7.8 | 0.00 | 0.00 | 0.00 | 75 | 1006.9 |
| 20260506060601 | 61 | 189 | 6.1 | 7.0 | 0.00 | 0.00 | 0.00 | 75 | 1007.1 |
| 20260506051029 | 62 | 183 | 6.1 | 9.6 | 0.00 | 0.00 | 0.00 | 76 | 1007.1 |